Change the Weather History Date:

Sunday, November 24, 2013

  Actual Average Record
Temperature  
Mean Temperature 26 °F -  
Max Temperature 32 °F 54 °F 75 °F (2010)
Min Temperature 21 °F 38 °F 21 °F (2013)
Degree Days  
Heating Degree Days 38    
Moisture  
Dew Point 9 °F    
Average Humidity 47    
Maximum Humidity 54    
Minimum Humidity 40    
Precipitation  
Precipitation 0.00 in - - ()
Sea Level Pressure  
Sea Level Pressure 30.61 in    
Wind  
Wind Speed 13 mph (NE)    
Max Wind Speed 17 mph    
Max Gust Speed 24 mph    
Visibility 10 miles    
Events      
Averages and records for this station are not official NWS values.
T = Trace of Precipitation, MM = Missing Value Source: NWS Daily Summary

Daily Weather History Graph

Daily Weather History Graph

Search for Another Location

Airport or City:

Trip Planner

Search our weather history database for the weather conditions in past years. The results will help you decide how hot, cold, wet, or windy it might be!

Date:

Astronomy

Nov. 24, 2013 Rise Set
Actual Time 6:43 AM CST 4:45 PM CST
Civil Twilight 6:15 AM CST 5:13 PM CST
Nautical Twilight 5:44 AM CST 5:44 PM CST
Astronomical Twilight 5:13 AM CST 6:15 PM CST
Moon 11:04 PM CST (11/24) 11:36 AM CST (11/24)
Length of Visible Light 10h 57m
Length of Day
10h 01m
Waning Gibbous, 60% of the Moon is Illuminated
Nov 24
Waning Gibbous
Nov 25
Last Quarter
Dec 2
New
Dec 9
First Quarter
Dec 17
Full

Hourly Weather History & Observations

Time (CST) Temp. Windchill Dew Point Humidity Pressure Visibility Wind Dir Wind Speed Gust Speed Precip Events Conditions
12:15 AM 26.6 °F 13.8 °F 10.4 °F 51% 30.65 in 10.0 mi NNE 17.3 mph 24.2 mph N/A   Partly Cloudy
12:35 AM 24.8 °F 12.4 °F 8.6 °F 50% 30.65 in 10.0 mi NNE 15.0 mph 24.2 mph N/A   Clear
12:55 AM 24.8 °F 11.5 °F 8.6 °F 50% 30.65 in 10.0 mi NNE 17.3 mph 23.0 mph N/A   Clear
1:15 AM 24.8 °F 12.9 °F 8.6 °F 50% 30.65 in 10.0 mi North 13.8 mph 19.6 mph N/A   Clear
1:35 AM 24.8 °F 14.0 °F 8.6 °F 50% 30.66 in 10.0 mi North 11.5 mph 17.3 mph N/A   Clear
1:55 AM 24.8 °F 12.9 °F 8.6 °F 50% 30.66 in 10.0 mi NNE 13.8 mph - N/A   Clear
2:15 AM 24.8 °F 11.5 °F 8.6 °F 50% 30.66 in 10.0 mi NNE 17.3 mph - N/A   Clear
2:35 AM 24.8 °F 11.9 °F 8.6 °F 50% 30.66 in 10.0 mi NNE 16.1 mph 19.6 mph N/A   Clear
2:55 AM 23.0 °F 12.4 °F 8.6 °F 54% 30.66 in 10.0 mi NNE 10.4 mph - N/A   Clear
3:15 AM 23.0 °F 9.6 °F 8.6 °F 54% 30.66 in 10.0 mi NNE 16.1 mph 19.6 mph N/A   Clear
3:35 AM 23.0 °F 9.6 °F 8.6 °F 54% 30.65 in 10.0 mi NNE 16.1 mph 21.9 mph N/A   Clear
3:55 AM 23.0 °F 9.6 °F 6.8 °F 50% 30.66 in 10.0 mi NNE 16.1 mph 21.9 mph N/A   Clear
4:15 AM 21.2 °F 7.8 °F 6.8 °F 54% 30.66 in 10.0 mi NNE 15.0 mph 20.7 mph N/A   Clear
4:35 AM 21.2 °F 8.9 °F 6.8 °F 54% 30.67 in 10.0 mi NNE 12.7 mph 23.0 mph N/A   Clear
4:55 AM 21.2 °F 7.8 °F 6.8 °F 54% 30.67 in 10.0 mi NNE 15.0 mph 20.7 mph N/A   Clear
5:15 AM 21.2 °F 7.3 °F 6.8 °F 54% 30.67 in 10.0 mi NNE 16.1 mph - N/A   Clear
5:35 AM 21.2 °F 7.8 °F 6.8 °F 54% 30.68 in 10.0 mi NNE 15.0 mph 19.6 mph N/A   Clear
5:55 AM 21.2 °F 8.3 °F 6.8 °F 54% 30.70 in 10.0 mi NNE 13.8 mph 19.6 mph N/A   Clear
6:15 AM 21.2 °F 9.5 °F 6.8 °F 54% 30.70 in 10.0 mi NNE 11.5 mph - N/A   Clear
6:35 AM 21.2 °F 10.9 °F 6.8 °F 54% 30.70 in 10.0 mi NNE 9.2 mph - N/A   Clear
6:55 AM 21.2 °F 9.5 °F 5.0 °F 50% 30.70 in 10.0 mi NE 11.5 mph - N/A   Clear
7:15 AM 21.2 °F 8.3 °F 6.8 °F 54% 30.71 in 10.0 mi NNE 13.8 mph - N/A   Clear
7:35 AM 21.2 °F 8.3 °F 6.8 °F 54% 30.70 in 10.0 mi NE 13.8 mph 19.6 mph N/A   Clear
7:55 AM 21.2 °F 8.3 °F 6.8 °F 54% 30.70 in 10.0 mi NNE 13.8 mph - N/A   Clear
8:15 AM 23.0 °F 9.6 °F 6.8 °F 50% 30.71 in 10.0 mi NE 16.1 mph - N/A   Clear
8:35 AM 24.8 °F 14.0 °F 6.8 °F 46% 30.71 in 10.0 mi NE 11.5 mph - N/A   Clear
8:55 AM 24.8 °F 12.4 °F 6.8 °F 46% 30.70 in 10.0 mi NE 15.0 mph 20.7 mph N/A   Clear
9:15 AM 24.8 °F 12.9 °F 6.8 °F 46% 30.71 in 10.0 mi ENE 13.8 mph - N/A   Clear
9:35 AM 24.8 °F 13.4 °F 8.6 °F 50% 30.70 in 10.0 mi ENE 12.7 mph - N/A   Clear
9:55 AM 26.6 °F 15.2 °F 8.6 °F 47% 30.69 in 10.0 mi NE 13.8 mph - N/A   Clear
10:15 AM 26.6 °F 15.2 °F 8.6 °F 47% 30.68 in 10.0 mi ENE 13.8 mph - N/A   Clear
10:35 AM 26.6 °F 14.7 °F 8.6 °F 47% 30.68 in 10.0 mi ENE 15.0 mph 19.6 mph N/A   Clear
10:55 AM 28.4 °F 18.5 °F 10.4 °F 47% 30.67 in 10.0 mi ENE 11.5 mph - N/A   Clear
11:15 AM 28.4 °F 18.5 °F 10.4 °F 47% 30.66 in 10.0 mi ENE 11.5 mph - N/A   Clear
11:35 AM 28.4 °F 18.5 °F 10.4 °F 47% 30.66 in 10.0 mi NE 11.5 mph - N/A   Clear
11:55 AM 28.4 °F 18.5 °F 10.4 °F 47% 30.65 in 10.0 mi ENE 11.5 mph 16.1 mph N/A   Clear
12:15 PM 30.2 °F 20.8 °F 10.4 °F 44% 30.64 in 10.0 mi ENE 11.5 mph 18.4 mph N/A   Clear
12:35 PM 30.2 °F 21.9 °F 8.6 °F 40% 30.63 in 10.0 mi ENE 9.2 mph 19.6 mph N/A   Clear
12:55 PM 30.2 °F 20.2 °F 10.4 °F 44% 30.62 in 10.0 mi NNE 12.7 mph - N/A   Clear
1:15 PM 30.2 °F 20.8 °F 10.4 °F 44% 30.61 in 10.0 mi NNE 11.5 mph - N/A   Clear
1:35 PM 30.2 °F 20.8 °F 10.4 °F 44% 30.60 in 10.0 mi NE 11.5 mph - N/A   Clear
1:55 PM 30.2 °F 24.3 °F 10.4 °F 44% 30.59 in 10.0 mi NNE 5.8 mph - N/A   Clear
2:15 PM 30.2 °F 21.9 °F 10.4 °F 44% 30.58 in 10.0 mi ENE 9.2 mph - N/A   Clear
2:35 PM 30.2 °F 22.6 °F 10.4 °F 44% 30.57 in 10.0 mi NNE 8.1 mph - N/A   Clear
2:55 PM 32.0 °F 25.6 °F 10.4 °F 41% 30.57 in 10.0 mi ENE 6.9 mph - N/A   Clear
3:15 PM 32.0 °F 23.0 °F 10.4 °F 41% 30.58 in 10.0 mi NNE 11.5 mph - N/A   Clear
3:35 PM 30.2 °F 20.2 °F 10.4 °F 44% 30.57 in 10.0 mi NNE 12.7 mph - N/A   Clear
3:55 PM 30.2 °F 21.9 °F 10.4 °F 44% 30.57 in 10.0 mi NNE 9.2 mph - N/A   Clear
4:15 PM 30.2 °F 21.3 °F 10.4 °F 44% 30.56 in 10.0 mi NNE 10.4 mph - N/A   Clear
4:35 PM 30.2 °F 22.6 °F 10.4 °F 44% 30.56 in 10.0 mi NE 8.1 mph - N/A   Clear
4:55 PM 30.2 °F 21.9 °F 8.6 °F 40% 30.56 in 10.0 mi NNE 9.2 mph - N/A   Clear
5:15 PM 30.2 °F 24.3 °F 8.6 °F 40% 30.56 in 10.0 mi NNE 5.8 mph - N/A   Clear
5:35 PM 30.2 °F 23.4 °F 10.4 °F 44% 30.56 in 10.0 mi NE 6.9 mph - N/A   Clear
5:55 PM 30.2 °F 23.4 °F 10.4 °F 44% 30.55 in 10.0 mi NE 6.9 mph - N/A   Clear
6:15 PM 30.2 °F 23.4 °F 10.4 °F 44% 30.55 in 10.0 mi NNE 6.9 mph - N/A   Clear
6:35 PM 30.2 °F 24.3 °F 10.4 °F 44% 30.55 in 10.0 mi NE 5.8 mph - N/A   Clear
6:55 PM 30.2 °F 25.4 °F 10.4 °F 44% 30.56 in 10.0 mi NE 4.6 mph - N/A   Clear
7:15 PM 30.2 °F 25.4 °F 10.4 °F 44% 30.56 in 10.0 mi NNE 4.6 mph - N/A   Clear
7:35 PM 30.2 °F 25.4 °F 10.4 °F 44% 30.55 in 10.0 mi NE 4.6 mph - N/A   Clear
7:55 PM 30.2 °F 24.3 °F 10.4 °F 44% 30.54 in 10.0 mi NE 5.8 mph - N/A   Clear
8:15 PM 30.2 °F 24.3 °F 10.4 °F 44% 30.54 in 10.0 mi NE 5.8 mph - N/A   Clear
8:35 PM 30.2 °F 26.7 °F 10.4 °F 44% 30.54 in 10.0 mi NE 3.5 mph - N/A   Clear
8:55 PM 30.2 °F 24.3 °F 12.2 °F 47% 30.53 in 10.0 mi NE 5.8 mph - N/A   Clear
9:15 PM 30.2 °F 23.4 °F 10.4 °F 44% 30.53 in 10.0 mi NE 6.9 mph - N/A   Clear
9:35 PM 30.2 °F 23.4 °F 10.4 °F 44% 30.51 in 10.0 mi NE 6.9 mph - N/A   Clear
9:55 PM 30.2 °F 22.6 °F 10.4 °F 44% 30.51 in 10.0 mi NE 8.1 mph - N/A   Clear
10:15 PM 30.2 °F 25.4 °F 10.4 °F 44% 30.50 in 10.0 mi East 4.6 mph - N/A   Clear
10:35 PM 30.2 °F 21.9 °F 10.4 °F 44% 30.50 in 10.0 mi East 9.2 mph - N/A   Clear
10:55 PM 30.2 °F 24.3 °F 10.4 °F 44% 30.49 in 10.0 mi ENE 5.8 mph - N/A   Clear
11:15 PM 30.2 °F 24.3 °F 12.2 °F 47% 30.48 in 10.0 mi ENE 5.8 mph - N/A   Clear
11:35 PM 30.2 °F 22.6 °F 12.2 °F 47% 30.46 in 10.0 mi East 8.1 mph - N/A   Scattered Clouds
11:55 PM 30.2 °F 22.6 °F 10.4 °F 44% 30.45 in 10.0 mi East 8.1 mph - N/A   Overcast